Tracking 35331 objects as of 14-Sep-2026
HD Live streaming from Space Station
objects crossing your sky now

DELTA 2 R/B(2) (PAM-D)


DELTA 2 R/B(2) (PAM-D) is no longer on orbit


NORAD ID: 28192
Int'l Code: 2004-009C
Launch date: March 20, 2004
Source: United States (US)
Launch site: AIR FORCE EASTERN TEST RANGE (AFETR)
Decay date: 2007-03-19

Note: This is a ROCKET BODY
Your satellite tracking list
Your tracking list is empty




NASA's NSSDC Master Catalog

Two Line Element Set (TLE):
1 28192U 04009C   07078.51553714  .22320397  34502-5  33144-3 0  9993
2 28192 038.6925 243.0186 0172640 190.0753 169.5701 16.16662104 77417
Source of the keplerian elements: AFSPC